Aérodrome :
LOGIN :

S'inscrire | Disclaimer

   EN    FR    IT 

 










Légende :    VFR   VFR Marginal   IFR   IFR Intensif   IFR Très Intensif
Visi : 
Plafond : 
>= 8 km
>= 3000ft
5 à 8 km
1000 à 3000 ft
1500m à 5 km
500 à 1000 ft
800 à 1500m
200 à 500 ft
< 800m
< 200 ft
Symboles :   Orages  Brouillard  Fortes neiges  Fortes précipitations  Vent > 20 kt
SIGMETs :   Divers  Orages  Givrage  Turbulence  Onde Orograph.  Cendres Volcan.







- Altitude de l'aérodrome : 80 ft
- Code IATA : LPL
- Voir les cartes d'approche


EGGP - Liverpool John Lennon

DERNIER METAR :
  • 240420Z 26001KT CAVOK 03/01 Q1031

METARs EXPIRÉS :
  • 240350Z 32003KT CAVOK 05/03 Q1032
  • 240320Z 18004KT CAVOK 05/02 Q1031
  • 240250Z 21003KT CAVOK 06/03 Q1031
  • 240220Z VRB02KT CAVOK 06/03 Q1032
  • 240150Z 30003KT CAVOK 06/03 Q1032

TAF TAF EGGP
Valide du 24 à 00h jusqu'au 25 à 00h UTC


232259Z 2400/2424 VRB04KT CAVOK
BECMG 2409/2412 29015KT
TEMPO 2412/2418 30018G28KT
BECMG 2415/2418 FEW012 BKN030
PROB30
TEMPO 2418/2424 30018G28KT 6000 SHRA BKN012
ATIS : +44 151 907 2000 (option 5 or ext 5150)
Météo : +44 871 750 5150
Pas de NOTAMs connus pour ce terrain.



MET'MAP, la Météo Aéronautique d'un coup d'oeil ! - Copyright ORBIFLY Décembre 2007 - Disclaimer

ORBIFLY MET'MAP TEAM :

Programmation & Développement : Alexandra Zaïnal
Conception & Développement : Baudouin d'Aumeries
Co-Programmation & Développement : Marc-Olivier Méhu
Soutien technique & logistique : Manuel Goepfert

Contact : metmap@orbifly.com




SOURCES & CREDITS :

   NOAA